Miscellaneous Local Product
Issued by NWS Hastings, NE

Home | Current Version | Previous Version | Graphics & Text | Print | Product List | Glossary On
Versions: 1 2 3 4 5 6 7 8 9 10 11 12 13 14 15 16 17 18 19 20 21 22 23 24 25 26 27 28 29 30 31 32 33 34 35 36 37 38 39 40 41 42 43 44 45 46 47 48 49 50
000
AXUS43 KGID 252202
MISGRI

GID CWA HOURLY WEATHER ROUNDUP
NATIONAL WEATHER SERVICE HASTINGS NE
500 PM CDT WED MAR 25 2015

NOTE: "FAIR" INDICATES FEW OR NO CLOUDS BELOW 12,000 FEET WITH NO
SIGNIFICANT WEATHER AND/OR OBSTRUCTIONS TO VISIBILITY.

...SOUTH CENTRAL NEBRASKA...

CITY           SKY/WX    TMP DP  RH WIND       PRES   REMARKS
GRAND ISLAND   FAIR      45  26  47 N18       30.15F
HASTINGS       FAIR      44  28  53 N20G28    30.13S
KEARNEY        FAIR      45  25  45 N21       30.15S
ORD            FAIR      47  22  37 N22G28    30.17S
YORK           FAIR      45  32  61 N17G24    30.13F
AURORA         PTSUNNY   45  31  57 N17G25    30.14S
LEXINGTON      FAIR      47  24  40 N22       30.18R
HOLDREGE       CLOUDY    44  26  49 N18       30.14S
HEBRON         FAIR      42  33  69 N14G20    30.13R

...NEBRASKA PANHANDLE...

CITY           SKY/WX    TMP DP  RH WIND       PRES   REMARKS
CHADRON        PTSUNNY   52  28  39 E10       30.16F
ALLIANCE       FAIR      51  21  30 N23G29    30.16F
SCOTTSBLUFF    FAIR      52  23  32 NW13G22   30.18F
SIDNEY         PTSUNNY   49  24  37 N14G23    30.18F

...WESTERN AND NORTH CENTRAL NEBRASKA...

CITY           SKY/WX    TMP DP  RH WIND       PRES   REMARKS
VALENTINE      FAIR      44  23  43 N20G29    30.21R
AINSWORTH      FAIR      44  24  46 N23       30.20R
ONEILL         FAIR      46  25  43 NW22G29   30.18R
BROKEN BOW     FAIR      48  23  37 N21       30.17S
IMPERIAL         N/A     47  24  40 N17       30.19F
NORTH PLATTE   FAIR      48  22  35 N15G24    30.18S
MCCOOK         CLOUDY    47  27  45 N21       30.18R

...EASTERN NEBRASKA...

CITY           SKY/WX    TMP DP  RH WIND       PRES   REMARKS
NORFOLK        FAIR      47  26  44 NW20      30.14S
SO SIOUX CITY  FAIR      45  28  51 NW21      30.14S
TEKAMAH        FAIR      47  30  51 NW18G31   30.14S
COLUMBUS       FAIR      46  27  46 N17       30.16F
ALBION         FAIR      45  25  45 N16G25    30.16S
OMAHA EPPLEY   CLOUDY    45  31  58 N18G28    30.12S
OFFUTT AFB     FAIR      46  32  58 NW15      30.10F
MILLARD        FAIR      46  32  58 NW15G21   30.13S
LINCOLN        PTSUNNY   45  31  58 N17       30.14S
NEBRASKA CITY  CLOUDY    43  32  65 N13G20    30.12R
BEATRICE       PTSUNNY   43  35  72 N6G18     30.13R
FALLS CITY     CLOUDY    45  36  70 N9        30.10F

...NORTHERN KANSAS...

CITY           SKY/WX    TMP DP  RH WIND       PRES   REMARKS
GOODLAND       PTSUNNY   40  36  86 N21       30.18S WCI  30
HILL CITY      LGT RAIN  39  35  86 N17G26    30.17R WCI  30
NORTON         CLOUDY    41  28  60 N13       30.16R
PHILLIPSBURG   CLOUDY    45  36  70 N12G20    30.16R
SMITH CENTER   CLOUDY    39  34  81 N13G20    30.15R WCI  32
BELOIT         CLOUDY    45  36  70 N22       30.11R
HAYS           CLOUDY    43  28  56 N24G36    30.13R
RUSSELL        CLOUDY    46  35  65 N26       30.09R
CONCORDIA      CLOUDY    44  36  73 NE18      30.11R
SALINA         LGT RAIN  47  39  74 N24G30    30.08R
TOPEKA         CLOUDY    47  39  74 N17       30.05F



USA.gov is the U.S. government's official web portal to all federal, state and local government web resources and services.